Date,TemperatureHighF,TemperatureAvgF,TemperatureLowF,DewpointHighF,DewpointAvgF,DewpointLowF,HumidityHigh,HumidityAvg,HumidityLow,PressureMaxIn,PressureMinIn,WindSpeedMaxMPH,WindSpeedAvgMPH,GustSpeedMaxMPH,PrecipitationSumIn
2013-5-1,72,56,36,38,34,26,89,51,18,30.41,30.26,6,1,11,0.00
2013-5-2,77,59,35,43,37,32,90,51,22,30.41,30.25,6,1,11,0.00
2013-5-3,68,57,44,43,34,25,75,44,20,30.38,30.27,10,2,12,0.00
2013-5-4,73,56,36,42,38,34,91,57,28,30.31,30.16,7,2,12,0.00
2013-5-5,71,56,36,42,31,17,87,47,13,30.22,30.12,8,2,11,0.00
2013-5-6,74,56,32,47,37,30,92,56,24,30.19,30.06,8,2,11,0.00
2013-5-7,77,61,41,53,46,39,93,62,29,30.12,30.01,7,1,10,0.00
2013-5-8,61,59,53,58,55,51,95,88,75,30.07,29.91,9,1,11,0.48
2013-5-9,64,56,48,55,51,47,97,86,60,29.95,29.84,3,1,7,0.06
2013-5-10,76,61,44,57,50,44,98,70,36,29.96,29.81,8,1,11,0.00
2013-5-11,65,60,54,60,56,52,92,86,71,29.82,29.62,6,1,15,0.52
2013-5-12,56,50,41,51,38,24,92,67,31,29.82,29.61,15,3,19,0.00
2013-5-13,45,40,31,29,26,23,87,59,50,30.07,29.82,13,4,19,0.00
2013-5-14,53,41,28,31,26,18,93,60,28,30.11,30.01,8,2,13,0.00
2013-5-15,69,49,30,54,39,27,91,71,51,30.05,29.60,16,3,30,0.05
2013-5-16,75,65,52,46,36,33,65,36,23,29.80,29.66,18,5,22,0.00
2013-5-17,66,55,44,42,38,34,86,55,34,30.20,29.80,12,4,17,0.00
2013-5-18,68,54,36,46,41,34,94,66,35,30.27,30.19,9,2,15,0.00
2013-5-19,57,54,47,53,50,44,91,86,80,30.24,30.09,11,3,17,0.00
2013-5-20,82,66,52,65,58,51,96,77,43,30.10,29.89,8,2,18,0.00
2013-5-21,89,71,53,66,57,-100,96,68,36,29.92,29.73,7,-19,14,0.00
2013-5-22,82,72,62,69,64,59,95,77,55,29.79,29.72,9,2,20,0.55
2013-5-23,75,68,60,65,59,51,95,75,44,29.77,29.66,12,2,18,0.61
2013-5-24,60,48,37,59,46,36,97,94,88,29.95,29.60,13,4,17,0.73
2013-5-25,42,39,37,40,38,36,95,93,91,29.96,29.90,18,7,23,0.87
2013-5-26,54,45,36,40,37,34,92,74,48,30.15,29.87,14,6,30,0.02
2013-5-27,68,50,30,42,34,29,96,62,25,30.21,30.12,11,2,18,0.00
2013-5-28,65,51,36,53,43,34,95,77,35,30.20,30.08,8,2,13,0.07
2013-5-29,81,67,54,65,60,53,97,82,54,30.09,29.91,9,2,27,1.49
2013-5-30,86,71,55,69,62,55,98,77,43,30.07,30.01,9,2,14,0.00
2013-5-31,90,74,55,67,60,54,95,67,34,30.09,29.91,6,1,12,0.00